| time (UTC) | temp C | wind direction | speed KPH | gust KPH | rain 1hr cm | rain 24hr cm | rain mn cm | humidity % | barometer mb |
| 20260510061250 | 8 | 64 | 1.6 | 9.7 | 0.00 | 0.61 | 0.00 | 76 | 1009.0 |
| 20260510061050 | 8 | 28 | 1.6 | 9.7 | 0.00 | 0.61 | 0.00 | 78 | 1009.0 |
| 20260510060849 | 8 | 29 | 0.0 | 3.2 | 0.00 | 0.61 | 0.00 | 78 | 1008.9 |
| 20260510060649 | 8 | 29 | 0.0 | 3.2 | 0.00 | 0.61 | 0.00 | 78 | 1009.0 |
| 20260510060449 | 8 | 29 | 0.0 | 3.2 | 0.00 | 0.61 | 0.00 | 78 | 1008.9 |
| 20260510060248 | 8 | 29 | 0.0 | 3.2 | 0.00 | 0.61 | 0.00 | 78 | 1008.9 |
| 20260510060048 | 8 | 29 | 0.0 | 3.2 | 0.00 | 0.61 | 0.00 | 77 | 1008.9 |
| 20260510055848 | 8 | 29 | 0.0 | 3.2 | 0.00 | 0.61 | 0.00 | 77 | 1008.8 |
| 20260510055648 | 8 | 29 | 0.0 | 3.2 | 0.00 | 0.61 | 0.00 | 77 | 1008.9 |
| 20260510055447 | 8 | 29 | 0.0 | 3.2 | 0.00 | 0.61 | 0.00 | 77 | 1008.9 |
| 20260510055247 | 8 | 29 | 0.0 | 3.2 | 0.00 | 0.61 | 0.00 | 77 | 1008.8 |
| 20260510055047 | 8 | 0 | 0.0 | 3.2 | 0.00 | 0.61 | 0.00 | 76 | 1008.8 |
| 20260510054846 | 8 | 29 | 0.0 | 3.2 | 0.00 | 0.61 | 0.00 | 76 | 1008.7 |
| 20260510054646 | 8 | 28 | 0.0 | 3.2 | 0.00 | 0.61 | 0.00 | 76 | 1008.5 |
| 20260510054446 | 8 | 0 | 0.0 | 3.2 | 0.00 | 0.61 | 0.00 | 76 | 1008.6 |
| 20260510054245 | 8 | 29 | 0.0 | 3.2 | 0.00 | 0.61 | 0.00 | 76 | 1008.6 |
| 20260510054045 | 8 | 29 | 0.0 | 3.2 | 0.00 | 0.61 | 0.00 | 76 | 1008.6 |
| 20260510053845 | 8 | 0 | 0.0 | 0.0 | 0.00 | 0.61 | 0.00 | 77 | 1008.6 |
| 20260510053645 | 8 | 0 | 0.0 | 0.0 | 0.00 | 0.61 | 0.00 | 76 | 1008.5 |
| 20260510053444 | 8 | 0 | 0.0 | 0.0 | 0.00 | 0.61 | 0.00 | 77 | 1008.6 |
| 20260510053244 | 8 | 0 | 0.0 | 0.0 | 0.00 | 0.61 | 0.00 | 77 | 1008.5 |
| 20260510053044 | 8 | 0 | 0.0 | 0.0 | 0.00 | 0.61 | 0.00 | 76 | 1008.5 |
| 20260510052843 | 8 | 0 | 0.0 | 0.0 | 0.00 | 0.61 | 0.00 | 76 | 1008.4 |
| 20260510052643 | 8 | 0 | 0.0 | 0.0 | 0.00 | 0.61 | 0.00 | 76 | 1008.4 |
| 20260510052443 | 8 | 0 | 0.0 | 1.6 | 0.00 | 0.61 | 0.00 | 76 | 1008.3 |
| 20260510052242 | 8 | 0 | 0.0 | 1.6 | 0.00 | 0.61 | 0.00 | 76 | 1008.3 |
| 20260510052042 | 8 | 0 | 0.0 | 1.6 | 0.00 | 0.61 | 0.00 | 76 | 1008.4 |
| 20260510051842 | 8 | 29 | 0.0 | 3.2 | 0.00 | 0.61 | 0.00 | 76 | 1008.4 |
| 20260510051642 | 8 | 0 | 0.0 | 3.2 | 0.00 | 0.61 | 0.00 | 76 | 1008.4 |
| 20260510051441 | 8 | 29 | 0.0 | 3.2 | 0.00 | 0.61 | 0.00 | 75 | 1008.4 |
| 20260510051241 | 8 | 29 | 0.0 | 3.2 | 0.00 | 0.61 | 0.00 | 76 | 1008.4 |
| 20260510051041 | 8 | 0 | 0.0 | 3.2 | 0.00 | 0.61 | 0.00 | 75 | 1008.5 |
| 20260510050840 | 8 | 0 | 0.0 | 3.2 | 0.00 | 0.61 | 0.00 | 76 | 1008.3 |
| 20260510050640 | 8 | 29 | 0.0 | 3.2 | 0.00 | 0.61 | 0.00 | 76 | 1008.2 |
| 20260510050440 | 8 | 29 | 0.0 | 3.2 | 0.00 | 0.61 | 0.00 | 76 | 1008.4 |
| 20260510050239 | 8 | 0 | 0.0 | 3.2 | 0.00 | 0.61 | 0.00 | 76 | 1008.4 |
| 20260510050039 | 8 | 29 | 0.0 | 6.4 | 0.00 | 0.61 | 0.00 | 76 | 1008.4 |
| 20260510045839 | 8 | 29 | 0.0 | 8.0 | 0.00 | 0.61 | 0.00 | 76 | 1008.3 |
| 20260510045639 | 8 | 29 | 0.0 | 8.0 | 0.00 | 0.61 | 0.00 | 76 | 1008.3 |
| 20260510045438 | 8 | 48 | 0.0 | 8.0 | 0.00 | 0.61 | 0.00 | 76 | 1008.3 |
| 20260510045238 | 8 | 47 | 1.6 | 8.0 | 0.00 | 0.61 | 0.00 | 76 | 1008.2 |
| 20260510045038 | 8 | 347 | 1.6 | 8.0 | 0.00 | 0.61 | 0.00 | 77 | 1008.2 |
| 20260510044837 | 8 | 344 | 1.6 | 9.7 | 0.00 | 0.61 | 0.00 | 77 | 1008.1 |
| 20260510044637 | 8 | 111 | 1.6 | 9.7 | 0.00 | 0.61 | 0.00 | 77 | 1008.0 |
| 20260510044437 | 8 | 68 | 0.0 | 9.7 | 0.00 | 0.61 | 0.00 | 77 | 1007.9 |
| 20260510044236 | 9 | 41 | 1.6 | 9.7 | 0.00 | 0.61 | 0.00 | 77 | 1007.9 |
| 20260510044036 | 9 | 340 | 1.6 | 9.7 | 0.00 | 0.61 | 0.00 | 77 | 1007.9 |
| 20260510043836 | 9 | 314 | 0.0 | 6.4 | 0.00 | 0.61 | 0.00 | 77 | 1007.9 |
| 20260510043635 | 9 | 29 | 1.6 | 6.4 | 0.00 | 0.61 | 0.00 | 77 | 1008.0 |
| 20260510043435 | 9 | 360 | 1.6 | 6.4 | 0.00 | 0.61 | 0.00 | 77 | 1008.0 |
| 20260510043235 | 9 | 337 | 1.6 | 9.7 | 0.00 | 0.61 | 0.00 | 77 | 1008.0 |
| 20260510043035 | 9 | 329 | 1.6 | 9.7 | 0.00 | 0.61 | 0.00 | 78 | 1007.9 |
| 20260510042834 | 9 | 29 | 1.6 | 9.7 | 0.00 | 0.61 | 0.00 | 78 | 1007.9 |
| 20260510042634 | 10 | 355 | 1.6 | 11.3 | 0.00 | 0.61 | 0.00 | 77 | 1007.8 |
| 20260510042434 | 10 | 337 | 3.2 | 11.3 | 0.00 | 0.61 | 0.00 | 78 | 1007.7 |
| 20260510042233 | 10 | 335 | 3.2 | 11.3 | 0.00 | 0.61 | 0.00 | 78 | 1007.8 |
| 20260510042033 | 9 | 2 | 3.2 | 11.3 | 0.00 | 0.61 | 0.00 | 78 | 1007.9 |
| 20260510041833 | 9 | 3 | 3.2 | 11.3 | 0.00 | 0.61 | 0.00 | 78 | 1007.9 |
| 20260510041632 | 9 | 2 | 3.2 | 11.3 | 0.00 | 0.61 | 0.00 | 79 | 1007.9 |
| 20260510041432 | 10 | 53 | 1.6 | 9.7 | 0.00 | 0.61 | 0.00 | 79 | 1007.9 |
| 20260510041232 | 10 | 350 | 1.6 | 11.3 | 0.00 | 0.61 | 0.00 | 80 | 1007.7 |
| 20260510041032 | 10 | 348 | 1.6 | 11.3 | 0.00 | 0.61 | 0.00 | 79 | 1007.4 |
| 20260510040831 | 10 | 348 | 3.2 | 11.3 | 0.00 | 0.61 | 0.00 | 79 | 1007.3 |
| 20260510040631 | 10 | 354 | 4.8 | 16.1 | 0.00 | 0.61 | 0.00 | 79 | 1007.5 |
| 20260510040431 | 10 | 330 | 3.2 | 17.7 | 0.00 | 0.61 | 0.00 | 79 | 1007.4 |
| 20260510040230 | 10 | 318 | 3.2 | 17.7 | 0.00 | 0.61 | 0.00 | 78 | 1007.3 |
| 20260510040030 | 10 | 334 | 4.8 | 17.7 | 0.00 | 0.61 | 0.00 | 79 | 1007.2 |
| 20260510035830 | 10 | 357 | 4.8 | 17.7 | 0.00 | 0.61 | 0.61 | 79 | 1007.1 |
| 20260510035630 | 10 | 354 | 3.2 | 14.5 | 0.00 | 0.61 | 0.61 | 80 | 1007.1 |
| 20260510035429 | 10 | 29 | 3.2 | 14.5 | 0.00 | 0.61 | 0.61 | 80 | 1007.1 |
| 20260510035229 | 10 | 329 | 3.2 | 14.5 | 0.00 | 0.61 | 0.61 | 81 | 1007.1 |
| 20260510035029 | 10 | 23 | 4.8 | 14.5 | 0.00 | 0.61 | 0.61 | 81 | 1007.1 |
| 20260510034828 | 10 | 343 | 4.8 | 14.5 | 0.00 | 0.61 | 0.61 | 82 | 1007.0 |
| 20260510034628 | 10 | 6 | 4.8 | 11.3 | 0.00 | 0.61 | 0.61 | 83 | 1007.1 |
| 20260510034428 | 10 | 322 | 3.2 | 11.3 | 0.00 | 0.61 | 0.61 | 83 | 1007.2 |
| 20260510034228 | 10 | 321 | 3.2 | 9.7 | 0.00 | 0.61 | 0.61 | 84 | 1007.1 |
| 20260510034027 | 10 | 343 | 1.6 | 6.4 | 0.00 | 0.61 | 0.61 | 85 | 1006.9 |
| 20260510033827 | 10 | 337 | 0.0 | 6.4 | 0.00 | 0.61 | 0.61 | 85 | 1006.8 |
| 20260510033626 | 10 | 329 | 1.6 | 6.4 | 0.00 | 0.61 | 0.61 | 86 | 1006.7 |
| 20260510033426 | 10 | 280 | 1.6 | 6.4 | 0.00 | 0.61 | 0.61 | 86 | 1006.5 |
| 20260510033226 | 10 | 141 | 1.6 | 4.8 | 0.00 | 0.61 | 0.61 | 86 | 1006.6 |
| 20260510033026 | 10 | 100 | 1.6 | 3.2 | 0.00 | 0.61 | 0.61 | 87 | 1006.5 |
| 20260510032825 | 10 | 52 | 1.6 | 3.2 | 0.00 | 0.61 | 0.61 | 87 | 1006.5 |
| 20260510032625 | 10 | 257 | 0.0 | 3.2 | 0.00 | 0.61 | 0.61 | 88 | 1006.5 |
| 20260510032425 | 10 | 256 | 0.0 | 4.8 | 0.00 | 0.61 | 0.61 | 89 | 1006.5 |
| 20260510032224 | 10 | 256 | 0.0 | 4.8 | 0.00 | 0.61 | 0.61 | 89 | 1006.5 |
| 20260510032024 | 10 | 278 | 0.0 | 4.8 | 0.00 | 0.61 | 0.61 | 89 | 1006.5 |
| 20260510031824 | 10 | 309 | 1.6 | 4.8 | 0.00 | 0.61 | 0.61 | 90 | 1006.4 |
| 20260510031623 | 10 | 320 | 0.0 | 4.8 | 0.00 | 0.61 | 0.61 | 90 | 1006.4 |
| 20260510031423 | 10 | 95 | 0.0 | 4.8 | 0.00 | 0.61 | 0.61 | 92 | 1006.4 |
| 20260510031223 | 10 | 87 | 1.6 | 4.8 | 0.00 | 0.61 | 0.61 | 92 | 1006.4 |
| 20260510031023 | 11 | 338 | 1.6 | 6.4 | 0.00 | 0.61 | 0.61 | 93 | 1006.4 |
| 20260510030822 | 11 | 342 | 1.6 | 6.4 | 0.00 | 0.61 | 0.61 | 94 | 1006.4 |
| 20260510030622 | 11 | 354 | 1.6 | 6.4 | 0.00 | 0.61 | 0.61 | 94 | 1006.4 |
| 20260510030422 | 11 | 254 | 1.6 | 6.4 | 0.00 | 0.61 | 0.61 | 95 | 1006.4 |
| 20260510030221 | 11 | 232 | 1.6 | 6.4 | 0.00 | 0.61 | 0.61 | 95 | 1006.4 |
| 20260510030021 | 11 | 232 | 1.6 | 3.2 | 0.00 | 0.61 | 0.61 | 95 | 1006.5 |
| 20260510025821 | 11 | 232 | 0.0 | 4.8 | 0.00 | 0.61 | 0.61 | 95 | 1006.4 |
| 20260510025621 | 11 | 232 | 0.0 | 4.8 | 0.00 | 0.61 | 0.61 | 95 | 1006.4 |
| 20260510025420 | 10 | 232 | 0.0 | 4.8 | 0.00 | 0.61 | 0.61 | 95 | 1006.4 |
| 20260510025220 | 10 | 232 | 0.0 | 4.8 | 0.00 | 0.61 | 0.61 | 95 | 1006.3 |
| 20260510025020 | 10 | 232 | 0.0 | 4.8 | 0.00 | 0.61 | 0.61 | 95 | 1006.2 |
| 20260510024819 | 10 | 0 | 0.0 | 3.2 | 0.00 | 0.61 | 0.61 | 95 | 1006.2 |
| 20260510024619 | 10 | 0 | 0.0 | 3.2 | 0.00 | 0.61 | 0.61 | 95 | 1006.1 |
| 20260510024419 | 10 | 0 | 0.0 | 3.2 | 0.00 | 0.61 | 0.61 | 95 | 1006.1 |
| 20260510024218 | 10 | 232 | 0.0 | 3.2 | 0.00 | 0.61 | 0.61 | 95 | 1006.1 |
| 20260510024018 | 10 | 232 | 0.0 | 3.2 | 0.00 | 0.61 | 0.61 | 95 | 1006.1 |
| 20260510023753 | 10 | 232 | 0.0 | 1.6 | 0.00 | 0.61 | 0.61 | 95 | 1006.0 |
| 20260510023552 | 10 | 0 | 0.0 | 1.6 | 0.00 | 0.61 | 0.61 | 95 | 1006.1 |
| 20260510023352 | 10 | 232 | 0.0 | 3.2 | 0.00 | 0.61 | 0.61 | 95 | 1006.0 |
| 20260510023152 | 10 | 232 | 0.0 | 3.2 | 0.00 | 0.61 | 0.61 | 95 | 1006.0 |
| 20260510022952 | 10 | 0 | 0.0 | 3.2 | 0.00 | 0.61 | 0.61 | 95 | 1006.0 |
| 20260510022751 | 10 | 232 | 0.0 | 3.2 | 0.00 | 0.61 | 0.61 | 95 | 1006.0 |
| 20260510022551 | 10 | 232 | 0.0 | 3.2 | 0.00 | 0.61 | 0.61 | 95 | 1006.1 |
| 20260510022351 | 10 | 232 | 0.0 | 3.2 | 0.00 | 0.61 | 0.61 | 95 | 1006.1 |
| 20260510022150 | 11 | 232 | 0.0 | 3.2 | 0.00 | 0.61 | 0.61 | 95 | 1006.1 |
| 20260510021950 | 11 | 232 | 0.0 | 3.2 | 0.00 | 0.61 | 0.61 | 95 | 1006.1 |
| 20260510021750 | 11 | 232 | 0.0 | 3.2 | 0.00 | 0.61 | 0.61 | 95 | 1006.0 |
| 20260510021549 | 11 | 232 | 0.0 | 4.8 | 0.00 | 0.61 | 0.61 | 95 | 1005.9 |
| 20260510021349 | 11 | 232 | 1.6 | 6.4 | 0.00 | 0.61 | 0.61 | 95 | 1005.9 |
| 20260510021149 | 11 | 232 | 0.0 | 6.4 | 0.00 | 0.61 | 0.61 | 95 | 1005.9 |
| 20260510020948 | 11 | 232 | 0.0 | 6.4 | 0.00 | 0.61 | 0.61 | 95 | 1005.9 |
| 20260510020748 | 11 | 241 | 1.6 | 6.4 | 0.00 | 0.61 | 0.61 | 95 | 1005.8 |
| 20260510020548 | 11 | 267 | 1.6 | 6.4 | 0.00 | 0.61 | 0.61 | 94 | 1005.8 |
| 20260510020348 | 11 | 268 | 1.6 | 6.4 | 0.00 | 0.61 | 0.61 | 95 | 1005.7 |
| 20260510020147 | 11 | 246 | 1.6 | 6.4 | 0.00 | 0.61 | 0.61 | 94 | 1005.7 |
| 20260510015947 | 11 | 236 | 0.0 | 4.8 | 0.00 | 0.61 | 0.61 | 94 | 1005.7 |
| 20260510015747 | 11 | 235 | 0.0 | 4.8 | 0.00 | 0.61 | 0.61 | 94 | 1005.7 |
| 20260510015546 | 11 | 234 | 1.6 | 4.8 | 0.00 | 0.61 | 0.61 | 94 | 1005.7 |
| 20260510015346 | 11 | 224 | 1.6 | 4.8 | 0.00 | 0.61 | 0.61 | 94 | 1005.7 |
| 20260510015146 | 11 | 219 | 1.6 | 6.4 | 0.00 | 0.61 | 0.61 | 94 | 1005.7 |
| 20260510014946 | 11 | 219 | 1.6 | 6.4 | 0.00 | 0.61 | 0.61 | 94 | 1005.7 |
| 20260510014745 | 11 | 219 | 0.0 | 6.4 | 0.00 | 0.61 | 0.61 | 94 | 1005.6 |
| 20260510014545 | 11 | 219 | 1.6 | 6.4 | 0.00 | 0.61 | 0.61 | 94 | 1005.5 |
| 20260510014345 | 11 | 252 | 1.6 | 6.4 | 0.00 | 0.61 | 0.61 | 94 | 1005.5 |
| 20260510014144 | 11 | 277 | 0.0 | 4.8 | 0.00 | 0.61 | 0.61 | 94 | 1005.4 |
| 20260510013944 | 11 | 282 | 0.0 | 4.8 | 0.00 | 0.61 | 0.61 | 94 | 1005.4 |
| 20260510013744 | 11 | 260 | 1.6 | 4.8 | 0.00 | 0.61 | 0.61 | 94 | 1005.4 |
| 20260510013543 | 11 | 156 | 0.0 | 4.8 | 0.00 | 0.61 | 0.61 | 94 | 1005.3 |
| 20260510013343 | 11 | 217 | 0.0 | 6.4 | 0.00 | 0.61 | 0.61 | 93 | 1005.2 |
| 20260510013143 | 11 | 217 | 1.6 | 6.4 | 0.00 | 0.61 | 0.61 | 93 | 1005.1 |
| 20260510012942 | 11 | 217 | 1.6 | 6.4 | 0.00 | 0.61 | 0.61 | 93 | 1005.1 |
| 20260510012742 | 11 | 217 | 1.6 | 6.4 | 0.00 | 0.61 | 0.61 | 93 | 1005.0 |
| 20260510012542 | 11 | 217 | 0.0 | 6.4 | 0.00 | 0.61 | 0.61 | 93 | 1005.0 |
| 20260510012342 | 11 | 217 | 0.0 | 3.2 | 0.00 | 0.61 | 0.61 | 93 | 1005.0 |
| 20260510012141 | 11 | 217 | 0.0 | 3.2 | 0.00 | 0.61 | 0.61 | 93 | 1005.0 |
| 20260510011941 | 11 | 217 | 0.0 | 6.4 | 0.00 | 0.61 | 0.61 | 92 | 1005.0 |
| 20260510011741 | 11 | 217 | 0.0 | 9.7 | 0.00 | 0.61 | 0.61 | 92 | 1004.9 |
| 20260510011540 | 11 | 217 | 0.0 | 9.7 | 0.00 | 0.61 | 0.61 | 92 | 1004.8 |
| 20260510011340 | 11 | 217 | 1.6 | 9.7 | 0.00 | 0.61 | 0.61 | 92 | 1004.8 |
| 20260510011140 | 11 | 207 | 1.6 | 9.7 | 0.00 | 0.61 | 0.61 | 92 | 1004.7 |
| 20260510010939 | 11 | 211 | 1.6 | 9.7 | 0.00 | 0.61 | 0.61 | 92 | 1004.6 |
| 20260510010739 | 11 | 203 | 3.2 | 9.7 | 0.00 | 0.61 | 0.61 | 92 | 1004.6 |
| 20260510010539 | 11 | 201 | 3.2 | 6.4 | 0.00 | 0.61 | 0.61 | 92 | 1004.6 |
| 20260510010339 | 11 | 201 | 1.6 | 6.4 | 0.00 | 0.61 | 0.61 | 92 | 1004.6 |
| 20260510010138 | 11 | 200 | 1.6 | 8.0 | 0.00 | 0.61 | 0.61 | 91 | 1004.5 |
| 20260510005938 | 11 | 200 | 1.6 | 8.0 | 0.00 | 0.61 | 0.61 | 91 | 1004.5 |
| 20260510005738 | 11 | 200 | 1.6 | 8.0 | 0.00 | 0.61 | 0.61 | 91 | 1004.4 |
| 20260510005537 | 11 | 207 | 1.6 | 8.0 | 0.00 | 0.61 | 0.61 | 91 | 1004.4 |
| 20260510005337 | 12 | 214 | 1.6 | 8.0 | 0.00 | 0.61 | 0.61 | 91 | 1004.4 |
| 20260510005137 | 12 | 211 | 3.2 | 8.0 | 0.00 | 0.61 | 0.61 | 91 | 1004.3 |
| 20260510004936 | 12 | 233 | 3.2 | 8.0 | 0.00 | 0.61 | 0.61 | 91 | 1004.3 |
| 20260510004736 | 12 | 236 | 1.6 | 9.7 | 0.00 | 0.61 | 0.61 | 91 | 1004.3 |
| 20260510004536 | 12 | 236 | 1.6 | 11.3 | 0.00 | 0.61 | 0.61 | 91 | 1004.1 |
| 20260510004336 | 12 | 246 | 1.6 | 11.3 | 0.00 | 0.61 | 0.61 | 91 | 1004.1 |
| 20260510004135 | 12 | 210 | 3.2 | 11.3 | 0.00 | 0.61 | 0.61 | 91 | 1004.0 |
| 20260510003935 | 12 | 187 | 4.8 | 11.3 | 0.00 | 0.61 | 0.61 | 91 | 1004.0 |
| 20260510003735 | 12 | 226 | 4.8 | 11.3 | 0.00 | 0.61 | 0.61 | 91 | 1004.0 |
| 20260510003534 | 12 | 229 | 3.2 | 9.7 | 0.00 | 0.61 | 0.61 | 90 | 1004.0 |
| 20260510003334 | 12 | 198 | 4.8 | 9.7 | 0.00 | 0.61 | 0.61 | 90 | 1004.0 |
| 20260510003134 | 12 | 222 | 3.2 | 9.7 | 0.00 | 0.61 | 0.61 | 90 | 1004.0 |
| 20260510002933 | 12 | 207 | 3.2 | 9.7 | 0.00 | 0.61 | 0.61 | 90 | 1004.0 |
| 20260510002733 | 12 | 197 | 3.2 | 9.7 | 0.00 | 0.61 | 0.61 | 90 | 1004.1 |
| 20260510002533 | 12 | 193 | 3.2 | 9.7 | 0.00 | 0.61 | 0.61 | 90 | 1004.0 |
| 20260510002333 | 12 | 206 | 1.6 | 9.7 | 0.00 | 0.61 | 0.61 | 90 | 1004.0 |
| 20260510002132 | 12 | 213 | 3.2 | 9.7 | 0.00 | 0.61 | 0.61 | 90 | 1004.0 |
| 20260510001932 | 12 | 217 | 3.2 | 9.7 | 0.00 | 0.61 | 0.61 | 90 | 1004.0 |
| 20260510001732 | 12 | 168 | 1.6 | 9.7 | 0.00 | 0.61 | 0.61 | 90 | 1003.9 |
| 20260510001531 | 12 | 178 | 1.6 | 9.7 | 0.00 | 0.61 | 0.61 | 90 | 1004.0 |
| 20260510001331 | 12 | 245 | 3.2 | 9.7 | 0.00 | 0.61 | 0.61 | 90 | 1004.0 |
| 20260510001131 | 12 | 212 | 3.2 | 9.7 | 0.00 | 0.61 | 0.61 | 89 | 1003.9 |
| 20260510000930 | 12 | 241 | 3.2 | 9.7 | 0.00 | 0.61 | 0.61 | 89 | 1003.9 |
| 20260510000730 | 12 | 279 | 1.6 | 9.7 | 0.00 | 0.61 | 0.61 | 90 | 1003.8 |
| 20260510000530 | 12 | 271 | 1.6 | 9.7 | 0.00 | 0.61 | 0.61 | 90 | 1003.9 |
| 20260510000330 | 12 | 139 | 1.6 | 9.7 | 0.00 | 0.61 | 0.61 | 90 | 1003.9 |
| 20260510000129 | 12 | 192 | 1.6 | 9.7 | 0.00 | 0.61 | 0.61 | 90 | 1003.8 |
| 20260509235929 | 12 | 185 | 1.6 | 8.0 | 0.00 | 0.61 | 0.61 | 89 | 1003.7 |
| 20260509235729 | 12 | 233 | 1.6 | 8.0 | 0.00 | 0.61 | 0.61 | 89 | 1003.7 |
| 20260509235528 | 12 | 203 | 1.6 | 9.7 | 0.00 | 0.61 | 0.61 | 89 | 1003.6 |
| 20260509235328 | 12 | 173 | 1.6 | 11.3 | 0.00 | 0.61 | 0.61 | 89 | 1003.6 |
| 20260509235128 | 12 | 286 | 1.6 | 11.3 | 0.00 | 0.61 | 0.61 | 89 | 1003.6 |
| 20260509234927 | 12 | 246 | 1.6 | 11.3 | 0.00 | 0.61 | 0.61 | 89 | 1003.5 |
| 20260509234727 | 12 | 211 | 4.8 | 14.5 | 0.00 | 0.61 | 0.61 | 89 | 1003.5 |
| 20260509234527 | 12 | 235 | 4.8 | 14.5 | 0.00 | 0.61 | 0.61 | 89 | 1003.5 |
| 20260509234327 | 12 | 255 | 3.2 | 14.5 | 0.00 | 0.61 | 0.61 | 89 | 1003.4 |
| 20260509234126 | 12 | 220 | 6.4 | 14.5 | 0.00 | 0.61 | 0.61 | 89 | 1003.5 |
| 20260509233926 | 12 | 208 | 8.0 | 14.5 | 0.03 | 0.61 | 0.61 | 89 | 1003.5 |
| 20260509233726 | 12 | 199 | 4.8 | 16.1 | 0.03 | 0.61 | 0.61 | 89 | 1003.6 |
| 20260509233525 | 12 | 140 | 3.2 | 16.1 | 0.03 | 0.61 | 0.61 | 88 | 1003.6 |
| 20260509233325 | 12 | 153 | 4.8 | 16.1 | 0.03 | 0.61 | 0.61 | 88 | 1003.4 |
| 20260509233125 | 12 | 193 | 6.4 | 16.1 | 0.03 | 0.61 | 0.61 | 88 | 1003.2 |
| 20260509232924 | 12 | 206 | 6.4 | 16.1 | 0.03 | 0.61 | 0.61 | 88 | 1003.2 |
| 20260509232724 | 12 | 216 | 6.4 | 12.9 | 0.03 | 0.61 | 0.61 | 88 | 1003.2 |
| 20260509232524 | 12 | 237 | 6.4 | 19.3 | 0.03 | 0.61 | 0.61 | 88 | 1003.2 |
| 20260509232324 | 12 | 213 | 6.4 | 19.3 | 0.03 | 0.61 | 0.61 | 88 | 1003.1 |
| 20260509232123 | 12 | 210 | 6.4 | 19.3 | 0.03 | 0.61 | 0.61 | 88 | 1003.0 |
| 20260509231923 | 12 | 230 | 6.4 | 20.9 | 0.03 | 0.61 | 0.61 | 87 | 1003.2 |
| 20260509231723 | 12 | 227 | 8.0 | 22.5 | 0.03 | 0.61 | 0.61 | 87 | 1003.1 |
| 20260509231522 | 12 | 206 | 8.0 | 22.5 | 0.03 | 0.61 | 0.61 | 87 | 1003.0 |
| 20260509231322 | 12 | 201 | 11.3 | 22.5 | 0.03 | 0.61 | 0.61 | 87 | 1003.0 |
| 20260509231122 | 12 | 211 | 9.7 | 22.5 | 0.03 | 0.61 | 0.61 | 87 | 1003.0 |
| 20260509230921 | 12 | 215 | 8.0 | 20.9 | 0.03 | 0.61 | 0.61 | 87 | 1003.1 |
| 20260509230721 | 12 | 225 | 8.0 | 20.9 | 0.03 | 0.61 | 0.61 | 88 | 1003.0 |
| 20260509230521 | 12 | 218 | 11.3 | 24.1 | 0.03 | 0.61 | 0.61 | 87 | 1003.0 |
| 20260509230321 | 12 | 218 | 9.7 | 24.1 | 0.03 | 0.61 | 0.61 | 87 | 1003.0 |
| 20260509230120 | 12 | 220 | 8.0 | 24.1 | 0.03 | 0.61 | 0.61 | 87 | 1003.0 |
| 20260509225920 | 12 | 216 | 11.3 | 24.1 | 0.03 | 0.61 | 0.61 | 87 | 1003.0 |
| 20260509225720 | 12 | 216 | 11.3 | 24.1 | 0.05 | 0.61 | 0.61 | 87 | 1003.0 |
| 20260509225519 | 12 | 215 | 11.3 | 24.1 | 0.08 | 0.61 | 0.61 | 87 | 1003.1 |
| 20260509225319 | 12 | 223 | 11.3 | 29.0 | 0.10 | 0.61 | 0.61 | 87 | 1003.0 |
| 20260509223918 | 12 | 215 | 8.0 | 24.1 | 0.48 | 0.58 | 0.58 | 90 | 1002.8 |
| 20260509223718 | 12 | 215 | 11.3 | 24.1 | 0.53 | 0.58 | 0.58 | 90 | 1002.9 |
| 20260509223517 | 11 | 216 | 9.7 | 24.1 | 0.53 | 0.58 | 0.58 | 91 | 1002.9 |
| 20260509223317 | 11 | 222 | 8.0 | 24.1 | 0.56 | 0.58 | 0.58 | 92 | 1002.9 |
| 20260509223048 | 11 | 211 | 9.7 | 24.1 | 0.56 | 0.58 | 0.58 | 93 | 1003.0 |
| 20260509222848 | 11 | 210 | 9.7 | 24.1 | 0.58 | 0.58 | 0.58 | 93 | 1003.0 |
| 20260509222648 | 11 | 210 | 9.7 | 24.1 | 0.58 | 0.58 | 0.58 | 92 | 1003.1 |
| 20260509222347 | 10 | 213 | 11.3 | 24.1 | 0.58 | 0.58 | 0.58 | 92 | 1003.3 |
| 20260509222147 | 10 | 220 | 9.7 | 24.1 | 0.58 | 0.58 | 0.58 | 92 | 1003.3 |
| 20260509221947 | 10 | 220 | 9.7 | 30.6 | 0.58 | 0.58 | 0.58 | 92 | 1003.2 |
| 20260509221746 | 11 | 215 | 11.3 | 30.6 | 0.58 | 0.58 | 0.58 | 92 | 1003.1 |
| 20260509221546 | 11 | 214 | 14.5 | 30.6 | 0.58 | 0.58 | 0.58 | 92 | 1003.4 |
| 20260509221346 | 11 | 211 | 14.5 | 30.6 | 0.58 | 0.58 | 0.58 | 92 | 1003.6 |
| 20260509221145 | 11 | 213 | 14.5 | 30.6 | 0.58 | 0.58 | 0.58 | 91 | 1003.6 |
| 20260509220945 | 11 | 224 | 12.9 | 30.6 | 0.58 | 0.58 | 0.58 | 91 | 1003.6 |
| 20260509220745 | 11 | 224 | 9.7 | 29.0 | 0.58 | 0.58 | 0.58 | 91 | 1003.4 |
| 20260509220545 | 11 | 218 | 11.3 | 30.6 | 0.58 | 0.58 | 0.58 | 92 | 1003.4 |
| 20260509220345 | 11 | 217 | 9.7 | 30.6 | 0.58 | 0.58 | 0.58 | 92 | 1003.0 |
| 20260509220144 | 11 | 227 | 8.0 | 33.8 | 0.58 | 0.58 | 0.58 | 92 | 1003.6 |
| 20260509215944 | 11 | 227 | 8.0 | 33.8 | 0.58 | 0.58 | 0.58 | 91 | 1003.7 |
| 20260509215743 | 11 | 211 | 9.7 | 33.8 | 0.56 | 0.56 | 0.56 | 91 | 1003.9 |
| 20260509215543 | 11 | 194 | 11.3 | 33.8 | 0.53 | 0.53 | 0.53 | 91 | 1004.0 |
| 20260509215343 | 11 | 184 | 11.3 | 33.8 | 0.48 | 0.48 | 0.48 | 91 | 1004.2 |
| 20260509215142 | 11 | 152 | 6.4 | 38.6 | 0.48 | 0.48 | 0.48 | 90 | 1004.2 |
| 20260509214942 | 11 | 193 | 9.7 | 40.2 | 0.43 | 0.43 | 0.43 | 86 | 1004.3 |
| 20260509214742 | 12 | 231 | 9.7 | 40.2 | 0.41 | 0.41 | 0.41 | 84 | 1004.1 |
| 20260509214542 | 12 | 239 | 12.9 | 40.2 | 0.38 | 0.38 | 0.38 | 82 | 1004.2 |
| 20260509214341 | 13 | 190 | 16.1 | 40.2 | 0.30 | 0.30 | 0.30 | 82 | 1004.3 |
| 20260509214141 | 14 | 197 | 16.1 | 35.4 | 0.15 | 0.15 | 0.15 | 82 | 1004.1 |
| 20260509213941 | 15 | 208 | 17.7 | 35.4 | 0.10 | 0.10 | 0.10 | 80 | 1004.0 |
| 20260509213740 | 15 | 256 | 12.9 | 35.4 | 0.05 | 0.05 | 0.05 | 78 | 1003.4 |
| 20260509213540 | 15 | 250 | 8.0 | 29.0 | 0.05 | 0.05 | 0.05 | 77 | 1003.1 |
| 20260509213340 | 15 | 197 | 6.4 | 29.0 | 0.03 | 0.03 | 0.03 | 78 | 1002.9 |
| 20260509213139 | 15 | 201 | 9.7 | 25.7 | 0.03 | 0.03 | 0.03 | 81 | 1002.6 |
| 20260509213023 | 15 | 217 | 11.3 | 25.7 | 0.00 | 0.00 | 0.00 | 81 | 1002.6 |
| 20260509212823 | 16 | 210 | 11.3 | 25.7 | 0.00 | 0.00 | 0.00 | 80 | 1002.8 |
| 20260509212640 | 16 | 209 | 11.3 | 24.1 | 0.00 | 0.00 | 0.00 | 79 | 1002.3 |
| 20260509212440 | 16 | 211 | 9.7 | 24.1 | 0.00 | 0.00 | 0.00 | 78 | 1002.4 |
| 20260509212240 | 16 | 196 | 9.7 | 24.1 | 0.00 | 0.00 | 0.00 | 78 | 1002.4 |
| 20260509212039 | 16 | 213 | 8.0 | 24.1 | 0.00 | 0.00 | 0.00 | 78 | 1002.4 |
| 20260509211839 | 16 | 212 | 9.7 | 24.1 | 0.00 | 0.00 | 0.00 | 77 | 1002.3 |
| 20260509211639 | 16 | 214 | 11.3 | 24.1 | 0.00 | 0.00 | 0.00 | 77 | 1002.4 |
| 20260509211508 | 16 | 219 | 12.9 | 24.1 | 0.00 | 0.00 | 0.00 | 77 | 1002.3 |
| 20260509211307 | 16 | 215 | 11.3 | 24.1 | 0.00 | 0.00 | 0.00 | 77 | 1002.3 |
| 20260509211107 | 16 | 218 | 11.3 | 22.5 | 0.00 | 0.00 | 0.00 | 77 | 1002.3 |
| 20260509210907 | 16 | 210 | 11.3 | 25.7 | 0.00 | 0.00 | 0.00 | 76 | 1002.3 |
| 20260509210707 | 16 | 205 | 11.3 | 27.4 | 0.00 | 0.00 | 0.00 | 76 | 1002.2 |
| 20260509210506 | 16 | 220 | 9.7 | 27.4 | 0.00 | 0.00 | 0.00 | 76 | 1002.4 |
| 20260509210306 | 16 | 218 | 11.3 | 27.4 | 0.00 | 0.00 | 0.00 | 76 | 1002.2 |
| 20260509210106 | 16 | 221 | 11.3 | 29.0 | 0.00 | 0.00 | 0.00 | 76 | 1002.2 |
| 20260509205905 | 16 | 224 | 9.7 | 43.5 | 0.00 | 0.00 | 0.00 | 76 | 1002.2 |
| 20260509205705 | 16 | 219 | 9.7 | 43.5 | 0.00 | 0.00 | 0.00 | 76 | 1002.2 |
| 20260509205505 | 16 | 214 | 14.5 | 43.5 | 0.00 | 0.00 | 0.00 | 75 | 1002.1 |
| 20260509205307 | 16 | 199 | 14.5 | 43.5 | 0.00 | 0.00 | 0.00 | 75 | 1002.0 |
| 20260509205104 | 16 | 212 | 12.9 | 43.5 | 0.00 | 0.00 | 0.00 | 75 | 1002.0 |
| 20260509204904 | 16 | 219 | 12.9 | 32.2 | 0.00 | 0.00 | 0.00 | 75 | 1001.9 |
| 20260509204704 | 16 | 215 | 14.5 | 32.2 | 0.00 | 0.00 | 0.00 | 74 | 1001.8 |
| 20260509204503 | 16 | 220 | 14.5 | 32.2 | 0.00 | 0.00 | 0.00 | 74 | 1001.8 |
| 20260509204303 | 16 | 216 | 11.3 | 30.6 | 0.00 | 0.00 | 0.00 | 73 | 1001.9 |
| 20260509204103 | 16 | 212 | 11.3 | 25.7 | 0.00 | 0.00 | 0.00 | 73 | 1001.9 |
| 20260509203902 | 16 | 210 | 11.3 | 32.2 | 0.00 | 0.00 | 0.00 | 73 | 1001.9 |
| 20260509203702 | 16 | 218 | 12.9 | 32.2 | 0.00 | 0.00 | 0.00 | 73 | 1001.9 |
| 20260509203502 | 16 | 209 | 12.9 | 32.2 | 0.00 | 0.00 | 0.00 | 73 | 1001.9 |
| 20260509203301 | 16 | 214 | 14.5 | 33.8 | 0.00 | 0.00 | 0.00 | 73 | 1001.9 |
| 20260509203101 | 17 | 227 | 12.9 | 35.4 | 0.00 | 0.00 | 0.00 | 73 | 1001.9 |
| 20260509202901 | 17 | 218 | 16.1 | 35.4 | 0.00 | 0.00 | 0.00 | 73 | 1002.0 |
| 20260509202701 | 17 | 206 | 17.7 | 35.4 | 0.00 | 0.00 | 0.00 | 73 | 1002.1 |
| 20260509202500 | 17 | 213 | 17.7 | 35.4 | 0.00 | 0.00 | 0.00 | 73 | 1002.2 |
| 20260509202300 | 17 | 214 | 12.9 | 35.4 | 0.00 | 0.00 | 0.00 | 73 | 1002.2 |
| 20260509202100 | 17 | 202 | 14.5 | 35.4 | 0.00 | 0.00 | 0.00 | 73 | 1002.3 |
| 20260509201859 | 17 | 210 | 16.1 | 35.4 | 0.00 | 0.00 | 0.00 | 73 | 1002.3 |
| 20260509201659 | 17 | 214 | 16.1 | 32.2 | 0.00 | 0.00 | 0.00 | 73 | 1002.3 |
| 20260509201459 | 17 | 215 | 12.9 | 29.0 | 0.00 | 0.00 | 0.00 | 73 | 1002.2 |
| 20260509201258 | 17 | 225 | 14.5 | 29.0 | 0.00 | 0.00 | 0.00 | 74 | 1002.2 |
| 20260509201058 | 17 | 219 | 12.9 | 29.0 | 0.00 | 0.00 | 0.00 | 74 | 1002.2 |
| 20260509200858 | 17 | 217 | 9.7 | 29.0 | 0.00 | 0.00 | 0.00 | 75 | 1002.2 |
| 20260509200658 | 17 | 220 | 14.5 | 32.2 | 0.00 | 0.00 | 0.00 | 74 | 1002.2 |
| 20260509200457 | 17 | 212 | 14.5 | 32.2 | 0.00 | 0.00 | 0.00 | 74 | 1002.2 |
| 20260509200257 | 17 | 224 | 9.7 | 32.2 | 0.00 | 0.00 | 0.00 | 74 | 1002.2 |
| 20260509200057 | 17 | 219 | 14.5 | 32.2 | 0.00 | 0.00 | 0.00 | 74 | 1002.3 |
| 20260509195856 | 17 | 226 | 14.5 | 32.2 | 0.00 | 0.00 | 0.00 | 73 | 1002.3 |
| 20260509195656 | 17 | 217 | 12.9 | 32.2 | 0.00 | 0.00 | 0.00 | 72 | 1002.2 |
| 20260509195456 | 17 | 211 | 14.5 | 30.6 | 0.00 | 0.00 | 0.00 | 71 | 1002.1 |
| 20260509195255 | 17 | 221 | 11.3 | 30.6 | 0.00 | 0.00 | 0.00 | 71 | 1002.1 |
| 20260509195055 | 17 | 222 | 11.3 | 30.6 | 0.00 | 0.00 | 0.00 | 72 | 1002.1 |
| 20260509194855 | 17 | 211 | 17.7 | 30.6 | 0.00 | 0.00 | 0.00 | 72 | 1002.1 |
| 20260509194655 | 17 | 216 | 12.9 | 30.6 | 0.00 | 0.00 | 0.00 | 72 | 1002.2 |
| 20260509194454 | 16 | 224 | 11.3 | 25.7 | 0.00 | 0.00 | 0.00 | 73 | 1002.3 |
| 20260509194254 | 16 | 211 | 12.9 | 27.4 | 0.00 | 0.00 | 0.00 | 74 | 1002.4 |
| 20260509194054 | 16 | 208 | 11.3 | 27.4 | 0.00 | 0.00 | 0.00 | 74 | 1002.6 |
| 20260509193853 | 16 | 199 | 9.7 | 27.4 | 0.00 | 0.00 | 0.00 | 75 | 1002.7 |
| 20260509193653 | 16 | 202 | 11.3 | 27.4 | 0.00 | 0.00 | 0.00 | 75 | 1003.0 |
| 20260509193453 | 16 | 214 | 11.3 | 27.4 | 0.00 | 0.00 | 0.00 | 75 | 1003.2 |
| 20260509193252 | 16 | 219 | 9.7 | 27.4 | 0.00 | 0.00 | 0.00 | 75 | 1003.3 |
| 20260509193052 | 17 | 215 | 9.7 | 27.4 | 0.00 | 0.00 | 0.00 | 75 | 1003.3 |
| 20260509192852 | 17 | 207 | 12.9 | 27.4 | 0.00 | 0.00 | 0.00 | 74 | 1003.3 |
| 20260509192652 | 17 | 218 | 14.5 | 27.4 | 0.00 | 0.00 | 0.00 | 74 | 1003.4 |
| 20260509192451 | 17 | 217 | 11.3 | 22.5 | 0.00 | 0.00 | 0.00 | 74 | 1003.3 |
| 20260509192251 | 17 | 213 | 9.7 | 22.5 | 0.00 | 0.00 | 0.00 | 74 | 1003.4 |
| 20260509192051 | 17 | 216 | 11.3 | 22.5 | 0.00 | 0.00 | 0.00 | 74 | 1003.1 |
| 20260509191850 | 17 | 216 | 12.9 | 22.5 | 0.00 | 0.00 | 0.00 | 73 | 1002.9 |
| 20260509191650 | 17 | 219 | 14.5 | 22.5 | 0.00 | 0.00 | 0.00 | 73 | 1002.9 |
| 20260509191450 | 17 | 216 | 12.9 | 22.5 | 0.00 | 0.00 | 0.00 | 73 | 1003.0 |
| 20260509191249 | 17 | 210 | 8.0 | 22.5 | 0.00 | 0.00 | 0.00 | 72 | 1003.1 |
| 20260509191049 | 17 | 216 | 9.7 | 22.5 | 0.00 | 0.00 | 0.00 | 73 | 1003.2 |
| 20260509190849 | 17 | 214 | 12.9 | 30.6 | 0.00 | 0.00 | 0.00 | 72 | 1003.2 |
| 20260509190649 | 17 | 217 | 11.3 | 30.6 | 0.00 | 0.00 | 0.00 | 72 | 1003.2 |
| 20260509190448 | 17 | 228 | 11.3 | 30.6 | 0.00 | 0.00 | 0.00 | 72 | 1003.1 |
| 20260509190248 | 17 | 222 | 14.5 | 35.4 | 0.00 | 0.00 | 0.00 | 71 | 1003.1 |
| 20260509190048 | 17 | 220 | 12.9 | 35.4 | 0.00 | 0.00 | 0.00 | 71 | 1003.0 |
| 20260509185847 | 18 | 219 | 12.9 | 35.4 | 0.00 | 0.00 | 0.00 | 71 | 1003.0 |
| 20260509185647 | 18 | 221 | 12.9 | 35.4 | 0.00 | 0.00 | 0.00 | 71 | 1002.8 |
| 20260509185447 | 17 | 218 | 14.5 | 35.4 | 0.00 | 0.00 | 0.00 | 71 | 1002.9 |
| 20260509185246 | 17 | 217 | 16.1 | 32.2 | 0.00 | 0.00 | 0.00 | 70 | 1002.9 |
| 20260509185046 | 18 | 219 | 17.7 | 32.2 | 0.00 | 0.00 | 0.00 | 69 | 1002.9 |
| 20260509184846 | 18 | 219 | 11.3 | 29.0 | 0.00 | 0.00 | 0.00 | 69 | 1002.9 |
| 20260509184645 | 18 | 222 | 12.9 | 29.0 | 0.00 | 0.00 | 0.00 | 70 | 1002.7 |
| 20260509184445 | 18 | 219 | 16.1 | 33.8 | 0.00 | 0.00 | 0.00 | 69 | 1002.9 |
| 20260509184245 | 18 | 219 | 16.1 | 33.8 | 0.00 | 0.00 | 0.00 | 68 | 1002.9 |
| 20260509184045 | 19 | 227 | 9.7 | 33.8 | 0.00 | 0.00 | 0.00 | 69 | 1002.9 |
| 20260509183844 | 18 | 230 | 11.3 | 33.8 | 0.00 | 0.00 | 0.00 | 70 | 1002.7 |
| 20260509183644 | 18 | 213 | 12.9 | 33.8 | 0.00 | 0.00 | 0.00 | 71 | 1002.9 |
| 20260509183444 | 18 | 216 | 14.5 | 25.7 | 0.00 | 0.00 | 0.00 | 70 | 1002.9 |
| 20260509183243 | 18 | 219 | 16.1 | 33.8 | 0.00 | 0.00 | 0.00 | 70 | 1003.0 |
| 20260509183043 | 18 | 228 | 11.3 | 35.4 | 0.00 | 0.00 | 0.00 | 70 | 1003.0 |
| 20260509182843 | 18 | 218 | 11.3 | 35.4 | 0.00 | 0.00 | 0.00 | 71 | 1003.1 |
| 20260509182643 | 18 | 219 | 12.9 | 35.4 | 0.00 | 0.00 | 0.00 | 71 | 1003.0 |
| 20260509182442 | 18 | 219 | 16.1 | 35.4 | 0.00 | 0.00 | 0.00 | 71 | 1003.0 |
| 20260509182242 | 18 | 214 | 14.5 | 35.4 | 0.00 | 0.00 | 0.00 | 70 | 1003.0 |
| 20260509182042 | 18 | 209 | 14.5 | 25.7 | 0.00 | 0.00 | 0.00 | 70 | 1003.2 |
| 20260509181841 | 18 | 215 | 12.9 | 30.6 | 0.00 | 0.00 | 0.00 | 69 | 1003.2 |
| 20260509181641 | 18 | 229 | 9.7 | 30.6 | 0.00 | 0.00 | 0.00 | 70 | 1003.2 |
| 20260509181441 | 18 | 223 | 11.3 | 30.6 | 0.00 | 0.00 | 0.00 | 69 | 1003.3 |
| 20260509181240 | 18 | 208 | 16.1 | 30.6 | 0.00 | 0.00 | 0.00 | 70 | 1003.3 |
| 20260509181040 | 18 | 205 | 17.7 | 30.6 | 0.00 | 0.00 | 0.00 | 69 | 1003.3 |
| 20260509180840 | 18 | 217 | 12.9 | 27.4 | 0.00 | 0.00 | 0.00 | 69 | 1003.3 |
| 20260509180640 | 18 | 214 | 12.9 | 30.6 | 0.00 | 0.00 | 0.00 | 71 | 1003.2 |
| 20260509180439 | 18 | 204 | 14.5 | 30.6 | 0.00 | 0.00 | 0.00 | 70 | 1003.3 |
| 20260509180239 | 18 | 200 | 12.9 | 30.6 | 0.00 | 0.00 | 0.00 | 70 | 1003.4 |
| 20260509180039 | 18 | 202 | 14.5 | 30.6 | 0.00 | 0.00 | 0.00 | 70 | 1003.4 |
| 20260509175838 | 18 | 215 | 14.5 | 30.6 | 0.00 | 0.00 | 0.00 | 70 | 1003.5 |
| 20260509175638 | 18 | 219 | 12.9 | 30.6 | 0.00 | 0.00 | 0.00 | 72 | 1003.4 |
| 20260509175438 | 17 | 222 | 12.9 | 30.6 | 0.00 | 0.00 | 0.00 | 72 | 1003.4 |
| 20260509175237 | 17 | 213 | 11.3 | 30.6 | 0.00 | 0.00 | 0.00 | 72 | 1003.4 |
| 20260509175037 | 17 | 226 | 9.7 | 30.6 | 0.00 | 0.00 | 0.00 | 73 | 1003.5 |
| 20260509174837 | 17 | 224 | 12.9 | 30.6 | 0.00 | 0.00 | 0.00 | 73 | 1003.5 |
| 20260509174636 | 17 | 229 | 12.9 | 30.6 | 0.00 | 0.00 | 0.00 | 72 | 1003.6 |
| 20260509174436 | 17 | 235 | 8.0 | 20.9 | 0.00 | 0.00 | 0.00 | 72 | 1003.5 |
| 20260509174236 | 17 | 218 | 9.7 | 24.1 | 0.00 | 0.00 | 0.00 | 72 | 1003.7 |
| 20260509174036 | 17 | 215 | 11.3 | 24.1 | 0.00 | 0.00 | 0.00 | 72 | 1003.7 |
| 20260509173835 | 17 | 208 | 11.3 | 25.7 | 0.00 | 0.00 | 0.00 | 71 | 1003.7 |
| 20260509173635 | 17 | 214 | 12.9 | 29.0 | 0.00 | 0.00 | 0.00 | 71 | 1003.7 |
| 20260509173435 | 17 | 251 | 8.0 | 29.0 | 0.00 | 0.00 | 0.00 | 70 | 1003.8 |
| 20260509173234 | 17 | 238 | 9.7 | 29.0 | 0.00 | 0.00 | 0.00 | 71 | 1003.7 |
| 20260509173034 | 18 | 226 | 12.9 | 29.0 | 0.00 | 0.00 | 0.00 | 70 | 1003.8 |
| 20260509172834 | 18 | 221 | 11.3 | 29.0 | 0.00 | 0.00 | 0.00 | 69 | 1003.8 |
| 20260509172634 | 18 | 222 | 9.7 | 24.1 | 0.00 | 0.00 | 0.00 | 68 | 1003.8 |
| 20260509172433 | 18 | 219 | 9.7 | 29.0 | 0.00 | 0.00 | 0.00 | 69 | 1003.9 |
| 20260509172233 | 18 | 232 | 8.0 | 30.6 | 0.00 | 0.00 | 0.00 | 69 | 1003.9 |
| 20260509172033 | 18 | 241 | 8.0 | 30.6 | 0.00 | 0.00 | 0.00 | 70 | 1004.0 |
| 20260509171832 | 18 | 211 | 16.1 | 30.6 | 0.00 | 0.00 | 0.00 | 70 | 1004.0 |
| 20260509171632 | 18 | 213 | 16.1 | 30.6 | 0.00 | 0.00 | 0.00 | 69 | 1004.1 |
| 20260509171432 | 18 | 222 | 11.3 | 30.6 | 0.00 | 0.00 | 0.00 | 70 | 1004.1 |
| 20260509171231 | 18 | 223 | 11.3 | 29.0 | 0.00 | 0.00 | 0.00 | 71 | 1004.1 |
| 20260509171031 | 18 | 219 | 14.5 | 29.0 | 0.00 | 0.00 | 0.00 | 71 | 1004.1 |
| 20260509170831 | 18 | 234 | 11.3 | 29.0 | 0.00 | 0.00 | 0.00 | 71 | 1004.1 |
| 20260509170630 | 17 | 248 | 11.3 | 29.0 | 0.00 | 0.00 | 0.00 | 71 | 1004.1 |
| 20260509170430 | 17 | 226 | 14.5 | 29.0 | 0.00 | 0.00 | 0.00 | 70 | 1004.2 |
| 20260509170230 | 17 | 216 | 12.9 | 29.0 | 0.00 | 0.00 | 0.00 | 71 | 1004.4 |
| 20260509170030 | 17 | 220 | 11.3 | 29.0 | 0.00 | 0.00 | 0.00 | 71 | 1004.4 |
| 20260509165829 | 17 | 219 | 14.5 | 30.6 | 0.00 | 0.00 | 0.00 | 71 | 1004.5 |
| 20260509165629 | 17 | 223 | 11.3 | 33.8 | 0.00 | 0.00 | 0.00 | 71 | 1004.5 |
| 20260509165429 | 18 | 225 | 11.3 | 33.8 | 0.00 | 0.00 | 0.00 | 70 | 1004.6 |
| 20260509165228 | 18 | 215 | 12.9 | 33.8 | 0.00 | 0.00 | 0.00 | 70 | 1004.6 |
| 20260509165028 | 18 | 222 | 14.5 | 33.8 | 0.00 | 0.00 | 0.00 | 70 | 1004.6 |
| 20260509164828 | 18 | 222 | 14.5 | 33.8 | 0.00 | 0.00 | 0.00 | 70 | 1004.6 |
| 20260509164627 | 18 | 217 | 12.9 | 33.8 | 0.00 | 0.00 | 0.00 | 70 | 1004.4 |
| 20260509164427 | 18 | 205 | 14.5 | 30.6 | 0.00 | 0.00 | 0.00 | 71 | 1004.5 |
| 20260509164227 | 18 | 214 | 17.7 | 30.6 | 0.00 | 0.00 | 0.00 | 70 | 1004.6 |
| 20260509164027 | 18 | 220 | 11.3 | 29.0 | 0.00 | 0.00 | 0.00 | 70 | 1004.6 |
| 20260509163826 | 18 | 217 | 11.3 | 25.7 | 0.00 | 0.00 | 0.00 | 69 | 1004.5 |
| 20260509163626 | 18 | 206 | 11.3 | 25.7 | 0.00 | 0.00 | 0.00 | 70 | 1004.7 |
| 20260509163426 | 18 | 197 | 12.9 | 29.0 | 0.00 | 0.00 | 0.00 | 71 | 1004.6 |
| 20260509163225 | 18 | 208 | 12.9 | 30.6 | 0.00 | 0.00 | 0.00 | 70 | 1004.7 |
| 20260509163025 | 17 | 213 | 12.9 | 30.6 | 0.00 | 0.00 | 0.00 | 71 | 1004.7 |
| 20260509162825 | 17 | 213 | 12.9 | 30.6 | 0.00 | 0.00 | 0.00 | 72 | 1004.6 |
| 20260509162624 | 17 | 212 | 14.5 | 30.6 | 0.00 | 0.00 | 0.00 | 71 | 1004.5 |
| 20260509162424 | 17 | 213 | 12.9 | 27.4 | 0.00 | 0.00 | 0.00 | 71 | 1004.4 |
| 20260509162224 | 18 | 224 | 11.3 | 27.4 | 0.00 | 0.00 | 0.00 | 70 | 1004.4 |
| 20260509162024 | 18 | 233 | 9.7 | 27.4 | 0.00 | 0.00 | 0.00 | 70 | 1004.4 |
| 20260509161823 | 18 | 222 | 9.7 | 27.4 | 0.00 | 0.00 | 0.00 | 70 | 1004.4 |
| 20260509161623 | 18 | 212 | 9.7 | 24.1 | 0.00 | 0.00 | 0.00 | 71 | 1004.6 |
| 20260509161423 | 17 | 227 | 11.3 | 25.7 | 0.00 | 0.00 | 0.00 | 71 | 1004.7 |
| 20260509161222 | 17 | 232 | 9.7 | 25.7 | 0.00 | 0.00 | 0.00 | 71 | 1004.6 |
| 20260509161022 | 17 | 230 | 9.7 | 25.7 | 0.00 | 0.00 | 0.00 | 70 | 1004.6 |
| 20260509160822 | 17 | 218 | 11.3 | 25.7 | 0.00 | 0.00 | 0.00 | 70 | 1004.6 |
| 20260509160621 | 17 | 218 | 8.0 | 22.5 | 0.00 | 0.00 | 0.00 | 71 | 1004.7 |
| 20260509160421 | 17 | 220 | 9.7 | 22.5 | 0.00 | 0.00 | 0.00 | 71 | 1004.6 |
| 20260509160221 | 17 | 230 | 9.7 | 20.9 | 0.00 | 0.00 | 0.00 | 71 | 1004.5 |
| 20260509160021 | 17 | 213 | 9.7 | 24.1 | 0.00 | 0.00 | 0.00 | 71 | 1004.5 |
| 20260509155820 | 17 | 229 | 6.4 | 24.1 | 0.00 | 0.00 | 0.00 | 72 | 1004.6 |
| 20260509155620 | 17 | 221 | 6.4 | 24.1 | 0.00 | 0.00 | 0.00 | 73 | 1004.5 |
| 20260509155420 | 17 | 213 | 6.4 | 24.1 | 0.00 | 0.00 | 0.00 | 72 | 1004.7 |
| 20260509155219 | 17 | 213 | 9.7 | 24.1 | 0.00 | 0.00 | 0.00 | 71 | 1004.7 |
| 20260509155019 | 17 | 217 | 8.0 | 22.5 | 0.00 | 0.00 | 0.00 | 71 | 1004.8 |
| 20260509154819 | 17 | 219 | 8.0 | 22.5 | 0.00 | 0.00 | 0.00 | 73 | 1004.8 |
| 20260509154618 | 17 | 225 | 8.0 | 22.5 | 0.00 | 0.00 | 0.00 | 73 | 1004.8 |
| 20260509154419 | 17 | 227 | 8.0 | 22.5 | 0.00 | 0.00 | 0.00 | 73 | 1004.8 |
| 20260509154218 | 17 | 228 | 6.4 | 22.5 | 0.00 | 0.00 | 0.00 | 72 | 1004.9 |
| 20260509154018 | 17 | 222 | 8.0 | 22.5 | 0.00 | 0.00 | 0.00 | 72 | 1005.0 |
| 20260509153817 | 17 | 213 | 8.0 | 22.5 | 0.00 | 0.00 | 0.00 | 72 | 1005.1 |
| 20260509153617 | 17 | 214 | 8.0 | 16.1 | 0.00 | 0.00 | 0.00 | 72 | 1005.1 |
| 20260509153417 | 17 | 213 | 8.0 | 24.1 | 0.00 | 0.00 | 0.00 | 73 | 1005.2 |
| 20260509153216 | 17 | 208 | 4.8 | 24.1 | 0.00 | 0.00 | 0.00 | 73 | 1005.2 |
| 20260509153016 | 17 | 216 | 4.8 | 24.1 | 0.00 | 0.00 | 0.00 | 74 | 1005.2 |
| 20260509152816 | 16 | 217 | 6.4 | 24.1 | 0.00 | 0.00 | 0.00 | 74 | 1005.2 |
| 20260509152615 | 16 | 224 | 9.7 | 24.1 | 0.00 | 0.00 | 0.00 | 74 | 1005.3 |
| 20260509152415 | 16 | 227 | 9.7 | 22.5 | 0.00 | 0.00 | 0.00 | 75 | 1005.3 |
| 20260509152215 | 16 | 226 | 11.3 | 22.5 | 0.00 | 0.00 | 0.00 | 75 | 1005.4 |
| 20260509152015 | 16 | 221 | 11.3 | 29.0 | 0.00 | 0.00 | 0.00 | 75 | 1005.4 |
| 20260509151814 | 16 | 213 | 12.9 | 29.0 | 0.00 | 0.00 | 0.00 | 75 | 1005.4 |
| 20260509151614 | 16 | 209 | 11.3 | 29.0 | 0.00 | 0.00 | 0.00 | 76 | 1005.4 |
| 20260509151414 | 15 | 199 | 8.0 | 29.0 | 0.00 | 0.00 | 0.00 | 77 | 1005.3 |
| 20260509151213 | 15 | 218 | 16.1 | 29.0 | 0.00 | 0.00 | 0.00 | 77 | 1005.4 |
| 20260509151013 | 15 | 219 | 12.9 | 25.7 | 0.00 | 0.00 | 0.00 | 78 | 1005.3 |
| 20260509150813 | 15 | 210 | 12.9 | 22.5 | 0.00 | 0.00 | 0.00 | 77 | 1005.4 |
| 20260509150612 | 15 | 214 | 11.3 | 20.9 | 0.00 | 0.00 | 0.00 | 78 | 1005.4 |
| 20260509150412 | 15 | 211 | 6.4 | 20.9 | 0.00 | 0.00 | 0.00 | 78 | 1005.3 |
| 20260509150212 | 15 | 212 | 8.0 | 20.9 | 0.00 | 0.00 | 0.00 | 78 | 1005.3 |
| 20260509150012 | 15 | 200 | 11.3 | 20.9 | 0.00 | 0.00 | 0.00 | 78 | 1005.4 |
| 20260509145811 | 15 | 199 | 8.0 | 20.9 | 0.00 | 0.00 | 0.00 | 77 | 1005.2 |
| 20260509145611 | 15 | 204 | 8.0 | 25.7 | 0.00 | 0.00 | 0.00 | 78 | 1005.3 |
| 20260509145411 | 15 | 211 | 4.8 | 25.7 | 0.00 | 0.00 | 0.00 | 79 | 1005.2 |
| 20260509145210 | 15 | 209 | 9.7 | 25.7 | 0.00 | 0.00 | 0.00 | 80 | 1005.2 |
| 20260509145010 | 15 | 222 | 9.7 | 25.7 | 0.00 | 0.00 | 0.00 | 79 | 1005.2 |
| 20260509144810 | 15 | 208 | 11.3 | 25.7 | 0.00 | 0.00 | 0.00 | 79 | 1005.2 |
| 20260509144609 | 15 | 219 | 9.7 | 19.3 | 0.00 | 0.00 | 0.00 | 79 | 1005.2 |
| 20260509144409 | 15 | 226 | 8.0 | 20.9 | 0.00 | 0.00 | 0.00 | 81 | 1005.2 |
| 20260509144209 | 15 | 212 | 6.4 | 22.5 | 0.00 | 0.00 | 0.00 | 80 | 1005.3 |
| 20260509144008 | 15 | 224 | 6.4 | 22.5 | 0.00 | 0.00 | 0.00 | 81 | 1005.4 |
| 20260509143808 | 15 | 219 | 6.4 | 22.5 | 0.00 | 0.00 | 0.00 | 81 | 1005.4 |
| 20260509143608 | 15 | 224 | 8.0 | 24.1 | 0.00 | 0.00 | 0.00 | 81 | 1005.4 |
| 20260509143408 | 15 | 224 | 6.4 | 24.1 | 0.00 | 0.00 | 0.00 | 81 | 1005.4 |
| 20260509143207 | 15 | 219 | 11.3 | 24.1 | 0.00 | 0.00 | 0.00 | 81 | 1005.4 |
| 20260509143007 | 15 | 216 | 11.3 | 24.1 | 0.00 | 0.00 | 0.00 | 80 | 1005.5 |
| 20260509142807 | 15 | 215 | 9.7 | 24.1 | 0.00 | 0.00 | 0.00 | 80 | 1005.5 |
| 20260509142606 | 15 | 214 | 8.0 | 20.9 | 0.00 | 0.00 | 0.00 | 81 | 1005.5 |
| 20260509142406 | 15 | 219 | 6.4 | 20.9 | 0.00 | 0.00 | 0.00 | 81 | 1005.5 |
| 20260509142206 | 15 | 221 | 8.0 | 17.7 | 0.00 | 0.00 | 0.00 | 82 | 1005.5 |
| 20260509142005 | 15 | 236 | 6.4 | 19.3 | 0.00 | 0.00 | 0.00 | 82 | 1005.5 |
| 20260509141805 | 15 | 219 | 8.0 | 19.3 | 0.00 | 0.00 | 0.00 | 83 | 1005.5 |
| 20260509141605 | 14 | 211 | 8.0 | 19.3 | 0.00 | 0.00 | 0.00 | 83 | 1005.5 |
| 20260509141405 | 14 | 217 | 9.7 | 20.9 | 0.00 | 0.00 | 0.00 | 83 | 1005.5 |
| 20260509141204 | 14 | 212 | 8.0 | 20.9 | 0.00 | 0.00 | 0.00 | 84 | 1005.5 |
| 20260509141004 | 14 | 217 | 8.0 | 20.9 | 0.00 | 0.00 | 0.00 | 84 | 1005.5 |
| 20260509140804 | 14 | 206 | 12.9 | 20.9 | 0.00 | 0.00 | 0.00 | 84 | 1005.6 |
| 20260509140603 | 14 | 217 | 9.7 | 19.3 | 0.00 | 0.00 | 0.00 | 84 | 1005.5 |
| 20260509140403 | 14 | 226 | 8.0 | 19.3 | 0.00 | 0.00 | 0.00 | 85 | 1005.6 |
| 20260509140203 | 14 | 215 | 8.0 | 29.0 | 0.00 | 0.00 | 0.00 | 86 | 1005.6 |
| 20260509140003 | 13 | 215 | 6.4 | 29.0 | 0.00 | 0.00 | 0.00 | 87 | 1005.6 |
| 20260509135802 | 13 | 221 | 6.4 | 29.0 | 0.00 | 0.00 | 0.00 | 88 | 1005.7 |
| 20260509135602 | 13 | 217 | 9.7 | 29.0 | 0.00 | 0.00 | 0.00 | 88 | 1005.7 |
| 20260509135402 | 13 | 215 | 8.0 | 29.0 | 0.00 | 0.00 | 0.00 | 88 | 1005.7 |
| 20260509135201 | 13 | 224 | 6.4 | 25.7 | 0.00 | 0.00 | 0.00 | 89 | 1005.7 |
| 20260509135001 | 12 | 208 | 8.0 | 25.7 | 0.00 | 0.00 | 0.00 | 90 | 1005.7 |
| 20260509134801 | 12 | 219 | 8.0 | 25.7 | 0.00 | 0.00 | 0.00 | 90 | 1005.8 |
| 20260509134600 | 12 | 217 | 8.0 | 25.7 | 0.00 | 0.00 | 0.00 | 90 | 1005.8 |
| 20260509134400 | 12 | 220 | 8.0 | 25.7 | 0.00 | 0.00 | 0.00 | 90 | 1005.8 |
| 20260509134200 | 12 | 230 | 4.8 | 17.7 | 0.00 | 0.00 | 0.00 | 91 | 1005.9 |
| 20260509133959 | 12 | 227 | 3.2 | 22.5 | 0.00 | 0.00 | 0.00 | 92 | 1005.9 |
| 20260509133759 | 12 | 220 | 4.8 | 22.5 | 0.00 | 0.00 | 0.00 | 92 | 1006.0 |
| 20260509133559 | 12 | 228 | 8.0 | 22.5 | 0.00 | 0.00 | 0.00 | 92 | 1006.1 |
| 20260509133359 | 12 | 214 | 11.3 | 22.5 | 0.00 | 0.00 | 0.00 | 92 | 1006.0 |
| 20260509133158 | 12 | 215 | 9.7 | 22.5 | 0.00 | 0.00 | 0.00 | 92 | 1006.0 |
| 20260509132958 | 12 | 226 | 6.4 | 17.7 | 0.00 | 0.00 | 0.00 | 92 | 1006.0 |
| 20260509132758 | 12 | 219 | 8.0 | 17.7 | 0.00 | 0.00 | 0.00 | 92 | 1006.0 |
| 20260509132557 | 12 | 220 | 4.8 | 17.7 | 0.00 | 0.00 | 0.00 | 92 | 1006.1 |
| 20260509132357 | 12 | 224 | 6.4 | 16.1 | 0.00 | 0.00 | 0.00 | 92 | 1006.1 |
| 20260509132157 | 11 | 224 | 6.4 | 16.1 | 0.00 | 0.00 | 0.00 | 92 | 1006.1 |
| 20260509131956 | 11 | 229 | 4.8 | 17.7 | 0.00 | 0.00 | 0.00 | 92 | 1006.0 |
| 20260509131756 | 11 | 222 | 6.4 | 17.7 | 0.00 | 0.00 | 0.00 | 92 | 1006.0 |
| 20260509131556 | 11 | 207 | 6.4 | 19.3 | 0.00 | 0.00 | 0.00 | 93 | 1006.0 |
| 20260509131356 | 11 | 214 | 8.0 | 19.3 | 0.00 | 0.00 | 0.00 | 93 | 1006.1 |
| 20260509131155 | 11 | 219 | 6.4 | 19.3 | 0.00 | 0.00 | 0.00 | 93 | 1006.1 |
| 20260509130955 | 11 | 217 | 6.4 | 19.3 | 0.00 | 0.00 | 0.00 | 93 | 1006.1 |
| 20260509130755 | 11 | 223 | 6.4 | 19.3 | 0.00 | 0.00 | 0.00 | 93 | 1006.1 |
| 20260509130554 | 11 | 220 | 8.0 | 19.3 | 0.00 | 0.00 | 0.00 | 93 | 1006.1 |
| 20260509130354 | 11 | 214 | 8.0 | 16.1 | 0.00 | 0.00 | 0.00 | 93 | 1006.1 |
| 20260509130154 | 11 | 216 | 3.2 | 19.3 | 0.00 | 0.00 | 0.00 | 94 | 1006.2 |
| 20260509125953 | 11 | 217 | 4.8 | 19.3 | 0.00 | 0.00 | 0.00 | 94 | 1006.1 |
| 20260509125753 | 11 | 213 | 6.4 | 19.3 | 0.00 | 0.00 | 0.00 | 94 | 1006.1 |
| 20260509125553 | 11 | 216 | 4.8 | 19.3 | 0.00 | 0.00 | 0.00 | 94 | 1006.1 |
| 20260509125353 | 11 | 228 | 6.4 | 19.3 | 0.00 | 0.00 | 0.00 | 94 | 1006.1 |
| 20260509125152 | 11 | 220 | 6.4 | 19.3 | 0.00 | 0.00 | 0.00 | 94 | 1006.2 |
| 20260509124952 | 11 | 197 | 4.8 | 11.3 | 0.00 | 0.00 | 0.00 | 94 | 1006.2 |
| 20260509124752 | 11 | 223 | 4.8 | 11.3 | 0.00 | 0.00 | 0.00 | 94 | 1006.3 |
| 20260509124551 | 11 | 248 | 3.2 | 11.3 | 0.00 | 0.00 | 0.00 | 94 | 1006.4 |
| 20260509124351 | 11 | 207 | 3.2 | 11.3 | 0.00 | 0.00 | 0.00 | 94 | 1006.4 |
| 20260509124151 | 11 | 214 | 3.2 | 11.3 | 0.00 | 0.00 | 0.00 | 94 | 1006.4 |
| 20260509123950 | 11 | 208 | 3.2 | 11.3 | 0.00 | 0.00 | 0.00 | 94 | 1006.3 |
| 20260509123750 | 11 | 207 | 4.8 | 11.3 | 0.00 | 0.00 | 0.00 | 94 | 1006.3 |
| 20260509123550 | 11 | 218 | 4.8 | 16.1 | 0.00 | 0.00 | 0.00 | 94 | 1006.3 |
| 20260509123350 | 11 | 212 | 3.2 | 17.7 | 0.00 | 0.00 | 0.00 | 94 | 1006.2 |
| 20260509123149 | 11 | 206 | 1.6 | 17.7 | 0.00 | 0.00 | 0.00 | 94 | 1006.2 |
| 20260509122949 | 11 | 222 | 1.6 | 17.7 | 0.00 | 0.00 | 0.00 | 94 | 1006.2 |
| 20260509122749 | 11 | 189 | 3.2 | 17.7 | 0.00 | 0.00 | 0.00 | 94 | 1006.1 |
| 20260509122548 | 11 | 250 | 3.2 | 17.7 | 0.00 | 0.00 | 0.00 | 94 | 1006.0 |
| 20260509122348 | 11 | 215 | 6.4 | 14.5 | 0.00 | 0.00 | 0.00 | 94 | 1006.1 |
| 20260509122148 | 11 | 214 | 6.4 | 14.5 | 0.00 | 0.00 | 0.00 | 94 | 1006.0 |
| 20260509121947 | 11 | 224 | 4.8 | 11.3 | 0.00 | 0.00 | 0.00 | 95 | 1006.1 |
| 20260509121747 | 11 | 225 | 4.8 | 11.3 | 0.00 | 0.00 | 0.00 | 95 | 1006.0 |
| 20260509121547 | 11 | 222 | 3.2 | 11.3 | 0.00 | 0.00 | 0.00 | 95 | 1006.0 |
| 20260509121347 | 10 | 218 | 4.8 | 11.3 | 0.00 | 0.00 | 0.00 | 95 | 1006.1 |
| 20260509121146 | 10 | 206 | 3.2 | 11.3 | 0.00 | 0.00 | 0.00 | 95 | 1006.1 |
| 20260509120946 | 10 | 214 | 4.8 | 11.3 | 0.00 | 0.00 | 0.00 | 95 | 1006.0 |
| 20260509120746 | 10 | 229 | 4.8 | 11.3 | 0.00 | 0.00 | 0.00 | 95 | 1006.0 |
| 20260509120545 | 10 | 221 | 3.2 | 11.3 | 0.00 | 0.00 | 0.00 | 96 | 1006.1 |
| 20260509120345 | 10 | 217 | 3.2 | 11.3 | 0.00 | 0.00 | 0.00 | 96 | 1006.1 |
| 20260509120145 | 10 | 227 | 3.2 | 11.3 | 0.00 | 0.00 | 0.00 | 96 | 1006.1 |
| 20260509115944 | 10 | 235 | 1.6 | 11.3 | 0.00 | 0.00 | 0.00 | 96 | 1006.2 |
| 20260509115744 | 10 | 235 | 3.2 | 11.3 | 0.00 | 0.00 | 0.00 | 96 | 1006.1 |
| 20260509115544 | 10 | 239 | 3.2 | 11.3 | 0.00 | 0.00 | 0.00 | 96 | 1006.2 |
| 20260509115344 | 10 | 226 | 3.2 | 11.3 | 0.00 | 0.00 | 0.00 | 96 | 1006.2 |
| 20260509115143 | 10 | 230 | 4.8 | 11.3 | 0.00 | 0.00 | 0.00 | 96 | 1006.2 |
| 20260509114943 | 10 | 222 | 4.8 | 11.3 | 0.00 | 0.00 | 0.00 | 96 | 1006.1 |
| 20260509114743 | 10 | 222 | 3.2 | 11.3 | 0.00 | 0.00 | 0.00 | 96 | 1006.1 |
| 20260509114542 | 10 | 221 | 1.6 | 11.3 | 0.00 | 0.00 | 0.00 | 96 | 1006.2 |
| 20260509114342 | 10 | 229 | 3.2 | 12.9 | 0.00 | 0.00 | 0.00 | 96 | 1006.2 |
| 20260509114142 | 10 | 238 | 1.6 | 12.9 | 0.00 | 0.00 | 0.00 | 96 | 1006.2 |
| 20260509113941 | 10 | 227 | 1.6 | 12.9 | 0.00 | 0.00 | 0.00 | 96 | 1006.1 |
| 20260509113741 | 10 | 223 | 3.2 | 12.9 | 0.00 | 0.00 | 0.00 | 96 | 1006.2 |
| 20260509113541 | 10 | 229 | 1.6 | 12.9 | 0.00 | 0.00 | 0.00 | 96 | 1006.1 |
| 20260509113341 | 10 | 234 | 3.2 | 11.3 | 0.00 | 0.00 | 0.00 | 96 | 1006.2 |
| 20260509113140 | 10 | 225 | 3.2 | 11.3 | 0.00 | 0.00 | 0.00 | 96 | 1006.2 |
| 20260509112940 | 9 | 232 | 1.6 | 8.0 | 0.00 | 0.00 | 0.00 | 96 | 1006.2 |
| 20260509112740 | 9 | 243 | 1.6 | 11.3 | 0.00 | 0.00 | 0.00 | 96 | 1006.2 |
| 20260509112539 | 9 | 230 | 3.2 | 11.3 | 0.00 | 0.00 | 0.00 | 96 | 1006.2 |
| 20260509112339 | 9 | 223 | 3.2 | 11.3 | 0.00 | 0.00 | 0.00 | 96 | 1006.2 |
| 20260509112139 | 9 | 226 | 4.8 | 11.3 | 0.00 | 0.00 | 0.00 | 96 | 1006.2 |
| 20260509111938 | 9 | 222 | 4.8 | 11.3 | 0.00 | 0.00 | 0.00 | 96 | 1006.2 |
| 20260509111738 | 9 | 229 | 3.2 | 9.7 | 0.00 | 0.00 | 0.00 | 96 | 1006.2 |
| 20260509111538 | 9 | 228 | 1.6 | 11.3 | 0.00 | 0.00 | 0.00 | 96 | 1006.1 |
| 20260509111337 | 9 | 218 | 4.8 | 12.9 | 0.00 | 0.00 | 0.00 | 96 | 1006.1 |
| 20260509111137 | 9 | 211 | 3.2 | 14.5 | 0.00 | 0.00 | 0.00 | 96 | 1006.1 |
| 20260509110937 | 9 | 203 | 3.2 | 16.1 | 0.00 | 0.00 | 0.00 | 96 | 1006.1 |
| 20260509110737 | 9 | 194 | 4.8 | 16.1 | 0.00 | 0.00 | 0.00 | 96 | 1006.1 |
| 20260509110536 | 9 | 215 | 6.4 | 16.1 | 0.00 | 0.00 | 0.00 | 96 | 1006.0 |
| 20260509110336 | 9 | 206 | 4.8 | 16.1 | 0.00 | 0.00 | 0.00 | 96 | 1006.0 |
| 20260509110136 | 9 | 215 | 4.8 | 16.1 | 0.00 | 0.00 | 0.00 | 96 | 1006.0 |
| 20260509105935 | 9 | 210 | 6.4 | 16.1 | 0.00 | 0.05 | 0.00 | 96 | 1006.0 |
| 20260509105735 | 9 | 219 | 8.0 | 16.1 | 0.00 | 0.05 | 0.00 | 96 | 1005.9 |
| 20260509105535 | 8 | 204 | 4.8 | 12.9 | 0.00 | 0.05 | 0.00 | 96 | 1005.9 |
| 20260509105334 | 8 | 202 | 4.8 | 12.9 | 0.00 | 0.05 | 0.00 | 96 | 1006.0 |
| 20260509105134 | 8 | 210 | 4.8 | 14.5 | 0.00 | 0.05 | 0.00 | 96 | 1005.9 |
| 20260509104934 | 8 | 221 | 4.8 | 14.5 | 0.00 | 0.05 | 0.00 | 96 | 1005.9 |
| 20260509104734 | 8 | 225 | 6.4 | 14.5 | 0.00 | 0.05 | 0.00 | 96 | 1005.8 |
| 20260509104533 | 8 | 218 | 6.4 | 14.5 | 0.00 | 0.05 | 0.00 | 96 | 1005.9 |
| 20260509104333 | 8 | 222 | 6.4 | 14.5 | 0.00 | 0.05 | 0.00 | 96 | 1005.9 |
| 20260509104133 | 8 | 215 | 4.8 | 11.3 | 0.00 | 0.05 | 0.00 | 96 | 1005.9 |
| 20260509103932 | 8 | 218 | 3.2 | 11.3 | 0.00 | 0.05 | 0.00 | 96 | 1005.9 |
| 20260509103732 | 8 | 231 | 3.2 | 11.3 | 0.00 | 0.05 | 0.00 | 96 | 1005.9 |
| 20260509103532 | 8 | 225 | 4.8 | 11.3 | 0.00 | 0.05 | 0.00 | 96 | 1005.9 |
| 20260509103331 | 8 | 212 | 4.8 | 12.9 | 0.00 | 0.05 | 0.00 | 96 | 1005.9 |
| 20260509103131 | 8 | 222 | 4.8 | 12.9 | 0.00 | 0.05 | 0.00 | 96 | 1006.0 |
| 20260509102931 | 8 | 213 | 6.4 | 12.9 | 0.00 | 0.05 | 0.00 | 96 | 1006.0 |
| 20260509102731 | 8 | 217 | 6.4 | 12.9 | 0.00 | 0.05 | 0.00 | 96 | 1005.9 |
| 20260509102530 | 8 | 216 | 6.4 | 12.9 | 0.00 | 0.05 | 0.00 | 96 | 1006.0 |
| 20260509102330 | 8 | 217 | 4.8 | 12.9 | 0.00 | 0.05 | 0.00 | 96 | 1006.1 |
| 20260509102130 | 8 | 215 | 3.2 | 14.5 | 0.00 | 0.05 | 0.00 | 95 | 1006.1 |
| 20260509101929 | 8 | 224 | 4.8 | 14.5 | 0.00 | 0.05 | 0.00 | 95 | 1006.1 |
| 20260509101729 | 8 | 210 | 6.4 | 14.5 | 0.00 | 0.05 | 0.00 | 95 | 1006.2 |
| 20260509101529 | 8 | 211 | 6.4 | 14.5 | 0.00 | 0.05 | 0.00 | 95 | 1006.2 |
| 20260509101328 | 8 | 206 | 6.4 | 14.5 | 0.00 | 0.05 | 0.00 | 95 | 1006.1 |
| 20260509101128 | 8 | 212 | 4.8 | 14.5 | 0.00 | 0.05 | 0.00 | 95 | 1006.1 |
| 20260509100928 | 8 | 220 | 4.8 | 9.7 | 0.00 | 0.05 | 0.00 | 95 | 1006.1 |
| 20260509100728 | 8 | 215 | 4.8 | 14.5 | 0.00 | 0.05 | 0.00 | 95 | 1006.2 |
| 20260509100527 | 8 | 209 | 3.2 | 14.5 | 0.00 | 0.05 | 0.00 | 95 | 1006.2 |
| 20260509100327 | 8 | 235 | 3.2 | 14.5 | 0.00 | 0.05 | 0.00 | 95 | 1006.1 |
| 20260509100127 | 8 | 228 | 6.4 | 14.5 | 0.00 | 0.05 | 0.00 | 95 | 1006.1 |
| 20260509095926 | 8 | 222 | 6.4 | 14.5 | 0.00 | 0.10 | 0.00 | 95 | 1006.1 |
| 20260509095726 | 8 | 218 | 4.8 | 12.9 | 0.00 | 0.10 | 0.00 | 94 | 1006.2 |
| 20260509095526 | 8 | 211 | 6.4 | 14.5 | 0.00 | 0.10 | 0.00 | 94 | 1006.2 |
| 20260509095325 | 8 | 215 | 6.4 | 14.5 | 0.00 | 0.10 | 0.00 | 94 | 1006.3 |
| 20260509095125 | 8 | 209 | 8.0 | 14.5 | 0.00 | 0.10 | 0.00 | 94 | 1006.3 |
| 20260509094925 | 8 | 210 | 8.0 | 14.5 | 0.00 | 0.10 | 0.00 | 94 | 1006.3 |
| 20260509094725 | 8 | 207 | 6.4 | 14.5 | 0.00 | 0.10 | 0.00 | 94 | 1006.3 |
| 20260509094524 | 9 | 206 | 6.4 | 16.1 | 0.00 | 0.10 | 0.00 | 94 | 1006.3 |
| 20260509094324 | 8 | 210 | 4.8 | 24.1 | 0.00 | 0.10 | 0.00 | 94 | 1006.3 |
| 20260509094124 | 8 | 218 | 6.4 | 24.1 | 0.00 | 0.10 | 0.00 | 94 | 1006.3 |
| 20260509093923 | 8 | 222 | 8.0 | 24.1 | 0.00 | 0.10 | 0.00 | 94 | 1006.3 |
| 20260509093723 | 8 | 219 | 6.4 | 24.1 | 0.00 | 0.10 | 0.00 | 94 | 1006.3 |
| 20260509093523 | 8 | 213 | 8.0 | 24.1 | 0.00 | 0.10 | 0.00 | 94 | 1006.2 |
| 20260509093322 | 8 | 214 | 6.4 | 24.1 | 0.00 | 0.10 | 0.00 | 94 | 1006.2 |
| 20260509093122 | 8 | 203 | 8.0 | 17.7 | 0.00 | 0.10 | 0.00 | 94 | 1006.3 |
| 20260509092922 | 8 | 208 | 6.4 | 16.1 | 0.00 | 0.10 | 0.00 | 94 | 1006.2 |
| 20260509092722 | 8 | 206 | 6.4 | 16.1 | 0.00 | 0.10 | 0.00 | 94 | 1006.3 |
| 20260509092521 | 8 | 205 | 8.0 | 16.1 | 0.00 | 0.10 | 0.00 | 94 | 1006.2 |
| 20260509092321 | 8 | 212 | 8.0 | 17.7 | 0.00 | 0.10 | 0.00 | 94 | 1006.3 |
| 20260509092121 | 8 | 227 | 6.4 | 17.7 | 0.00 | 0.10 | 0.00 | 94 | 1006.2 |
| 20260509091920 | 8 | 219 | 4.8 | 17.7 | 0.00 | 0.10 | 0.00 | 94 | 1006.3 |
| 20260509091720 | 8 | 218 | 8.0 | 17.7 | 0.00 | 0.10 | 0.00 | 93 | 1006.2 |
| 20260509091520 | 8 | 217 | 8.0 | 17.7 | 0.00 | 0.10 | 0.00 | 93 | 1006.2 |
| 20260509091319 | 8 | 217 | 6.4 | 16.1 | 0.00 | 0.10 | 0.00 | 93 | 1006.2 |
| 20260509091119 | 8 | 213 | 8.0 | 16.1 | 0.00 | 0.10 | 0.00 | 93 | 1006.3 |
| 20260509090919 | 8 | 227 | 6.4 | 19.3 | 0.00 | 0.10 | 0.00 | 93 | 1006.2 |
| 20260509090719 | 8 | 218 | 6.4 | 20.9 | 0.00 | 0.10 | 0.00 | 93 | 1006.2 |
| 20260509090518 | 8 | 210 | 8.0 | 20.9 | 0.00 | 0.10 | 0.00 | 93 | 1006.3 |
| 20260509090318 | 8 | 204 | 9.7 | 20.9 | 0.00 | 0.10 | 0.00 | 93 | 1006.4 |
| 20260509090118 | 8 | 213 | 9.7 | 20.9 | 0.00 | 0.10 | 0.00 | 93 | 1006.4 |
| 20260509085917 | 8 | 222 | 8.0 | 19.3 | 0.00 | 0.13 | 0.00 | 92 | 1006.4 |
| 20260509085717 | 8 | 221 | 8.0 | 17.7 | 0.00 | 0.13 | 0.00 | 92 | 1006.3 |
| 20260509085517 | 8 | 203 | 8.0 | 17.7 | 0.00 | 0.13 | 0.00 | 92 | 1006.3 |
| 20260509085316 | 8 | 215 | 9.7 | 17.7 | 0.00 | 0.13 | 0.00 | 92 | 1006.4 |
| 20260509085116 | 8 | 214 | 8.0 | 17.7 | 0.00 | 0.13 | 0.00 | 91 | 1006.4 |
| 20260509084916 | 8 | 213 | 6.4 | 16.1 | 0.00 | 0.13 | 0.00 | 91 | 1006.3 |
| 20260509084716 | 8 | 210 | 6.4 | 24.1 | 0.00 | 0.13 | 0.00 | 90 | 1006.4 |
| 20260509084515 | 8 | 217 | 4.8 | 24.1 | 0.00 | 0.13 | 0.00 | 90 | 1006.4 |
| 20260509084315 | 8 | 211 | 6.4 | 24.1 | 0.00 | 0.13 | 0.00 | 90 | 1006.5 |
| 20260509084115 | 8 | 219 | 4.8 | 24.1 | 0.00 | 0.13 | 0.00 | 89 | 1006.6 |
| 20260509083914 | 8 | 220 | 6.4 | 24.1 | 0.00 | 0.13 | 0.00 | 89 | 1006.7 |
| 20260509083714 | 8 | 218 | 4.8 | 19.3 | 0.00 | 0.13 | 0.00 | 89 | 1006.7 |
| 20260509083514 | 8 | 209 | 8.0 | 19.3 | 0.00 | 0.13 | 0.00 | 89 | 1006.7 |
| 20260509083313 | 8 | 200 | 8.0 | 19.3 | 0.00 | 0.13 | 0.00 | 88 | 1006.8 |
| 20260509083113 | 8 | 211 | 8.0 | 19.3 | 0.00 | 0.13 | 0.00 | 88 | 1006.8 |
| 20260509082913 | 8 | 213 | 8.0 | 19.3 | 0.00 | 0.13 | 0.00 | 88 | 1006.7 |
| 20260509082713 | 8 | 203 | 6.4 | 17.7 | 0.00 | 0.13 | 0.00 | 88 | 1006.7 |
| 20260509082512 | 8 | 209 | 8.0 | 17.7 | 0.00 | 0.13 | 0.00 | 87 | 1006.7 |
| 20260509082312 | 8 | 221 | 8.0 | 17.7 | 0.00 | 0.13 | 0.00 | 87 | 1006.7 |
| 20260509082112 | 8 | 210 | 9.7 | 17.7 | 0.00 | 0.13 | 0.00 | 87 | 1006.7 |
| 20260509081911 | 8 | 199 | 9.7 | 17.7 | 0.00 | 0.13 | 0.00 | 87 | 1006.8 |
| 20260509081711 | 8 | 213 | 8.0 | 16.1 | 0.00 | 0.13 | 0.00 | 87 | 1006.7 |
| 20260509081511 | 8 | 215 | 6.4 | 16.1 | 0.00 | 0.13 | 0.00 | 86 | 1006.7 |
| 20260509081310 | 8 | 224 | 6.4 | 16.1 | 0.00 | 0.13 | 0.00 | 86 | 1006.8 |
| 20260509081110 | 8 | 212 | 4.8 | 16.1 | 0.00 | 0.13 | 0.00 | 86 | 1006.9 |
| 20260509080910 | 8 | 210 | 3.2 | 9.7 | 0.00 | 0.13 | 0.00 | 85 | 1006.9 |
| 20260509080710 | 8 | 229 | 3.2 | 16.1 | 0.00 | 0.13 | 0.00 | 84 | 1006.9 |
| 20260509080509 | 8 | 223 | 3.2 | 16.1 | 0.00 | 0.13 | 0.00 | 84 | 1006.9 |
| 20260509080309 | 8 | 202 | 1.6 | 16.1 | 0.00 | 0.13 | 0.00 | 83 | 1006.9 |
| 20260509080109 | 8 | 209 | 3.2 | 16.1 | 0.00 | 0.13 | 0.00 | 83 | 1006.9 |
| 20260509075908 | 8 | 224 | 4.8 | 16.1 | 0.00 | 0.13 | 0.00 | 82 | 1007.0 |
| 20260509075708 | 8 | 220 | 4.8 | 16.1 | 0.00 | 0.13 | 0.00 | 82 | 1007.0 |
| 20260509075508 | 8 | 193 | 3.2 | 11.3 | 0.00 | 0.13 | 0.00 | 82 | 1006.9 |
| 20260509075307 | 8 | 212 | 4.8 | 11.3 | 0.00 | 0.13 | 0.00 | 82 | 1006.9 |
| 20260509075107 | 8 | 201 | 4.8 | 11.3 | 0.00 | 0.13 | 0.00 | 82 | 1006.9 |
| 20260509074907 | 8 | 215 | 6.4 | 16.1 | 0.00 | 0.13 | 0.00 | 82 | 1006.9 |
| 20260509074706 | 8 | 213 | 6.4 | 16.1 | 0.00 | 0.13 | 0.00 | 82 | 1006.9 |
| 20260509074506 | 8 | 210 | 8.0 | 16.1 | 0.00 | 0.13 | 0.00 | 81 | 1006.9 |
| 20260509074306 | 8 | 215 | 8.0 | 16.1 | 0.00 | 0.13 | 0.00 | 81 | 1006.9 |
| 20260509074106 | 8 | 223 | 6.4 | 16.1 | 0.00 | 0.13 | 0.00 | 81 | 1006.9 |
| 20260509073905 | 8 | 213 | 6.4 | 16.1 | 0.00 | 0.13 | 0.00 | 80 | 1006.8 |
| 20260509073705 | 8 | 214 | 6.4 | 16.1 | 0.00 | 0.13 | 0.00 | 80 | 1006.8 |
| 20260509073505 | 8 | 214 | 6.4 | 19.3 | 0.00 | 0.13 | 0.00 | 79 | 1006.8 |
| 20260509073304 | 8 | 217 | 6.4 | 19.3 | 0.00 | 0.13 | 0.00 | 79 | 1006.8 |
| 20260509073104 | 8 | 210 | 6.4 | 19.3 | 0.00 | 0.13 | 0.00 | 79 | 1006.9 |
| 20260509072904 | 8 | 202 | 8.0 | 19.3 | 0.00 | 0.13 | 0.00 | 78 | 1006.9 |
| 20260509072703 | 8 | 215 | 8.0 | 19.3 | 0.00 | 0.13 | 0.00 | 78 | 1007.0 |
| 20260509072503 | 8 | 219 | 8.0 | 17.7 | 0.00 | 0.13 | 0.00 | 78 | 1006.9 |
| 20260509072306 | 8 | 221 | 8.0 | 14.5 | 0.00 | 0.13 | 0.00 | 78 | 1006.9 |
| 20260509072103 | 8 | 217 | 6.4 | 14.5 | 0.00 | 0.13 | 0.00 | 77 | 1006.9 |
| 20260509071902 | 8 | 214 | 6.4 | 12.9 | 0.00 | 0.13 | 0.00 | 77 | 1006.9 |
| 20260509071702 | 8 | 204 | 4.8 | 12.9 | 0.00 | 0.13 | 0.00 | 77 | 1006.9 |
| 20260509071502 | 8 | 213 | 6.4 | 12.9 | 0.00 | 0.13 | 0.00 | 76 | 1007.0 |
| 20260509071301 | 8 | 210 | 6.4 | 12.9 | 0.00 | 0.13 | 0.00 | 76 | 1007.0 |
| 20260509071101 | 8 | 212 | 6.4 | 11.3 | 0.00 | 0.13 | 0.00 | 76 | 1006.9 |
| 20260509070901 | 8 | 214 | 4.8 | 12.9 | 0.00 | 0.13 | 0.00 | 75 | 1006.9 |
| 20260509070700 | 8 | 220 | 4.8 | 12.9 | 0.00 | 0.13 | 0.00 | 75 | 1006.9 |
| 20260509070500 | 8 | 222 | 3.2 | 12.9 | 0.00 | 0.13 | 0.00 | 75 | 1006.9 |
| 20260509070300 | 8 | 227 | 4.8 | 12.9 | 0.00 | 0.13 | 0.00 | 74 | 1006.9 |
| 20260509070100 | 8 | 212 | 6.4 | 12.9 | 0.00 | 0.13 | 0.00 | 74 | 1006.9 |
| 20260509065859 | 8 | 208 | 6.4 | 12.9 | 0.00 | 0.13 | 0.00 | 73 | 1007.0 |
| 20260509065659 | 8 | 218 | 6.4 | 12.9 | 0.00 | 0.13 | 0.00 | 73 | 1006.9 |
| 20260509065459 | 8 | 209 | 4.8 | 19.3 | 0.00 | 0.13 | 0.00 | 72 | 1006.9 |
| 20260509065258 | 8 | 220 | 4.8 | 19.3 | 0.00 | 0.13 | 0.00 | 72 | 1006.9 |
| 20260509065058 | 8 | 222 | 6.4 | 19.3 | 0.00 | 0.13 | 0.00 | 71 | 1007.0 |
| 20260509064858 | 8 | 226 | 6.4 | 19.3 | 0.00 | 0.13 | 0.00 | 71 | 1006.9 |
| 20260509064657 | 8 | 213 | 6.4 | 19.3 | 0.00 | 0.13 | 0.00 | 71 | 1007.0 |
| 20260509064457 | 8 | 217 | 6.4 | 19.3 | 0.00 | 0.13 | 0.00 | 71 | 1007.0 |
| 20260509064257 | 8 | 227 | 4.8 | 14.5 | 0.00 | 0.13 | 0.00 | 71 | 1007.0 |
| 20260509064057 | 8 | 229 | 3.2 | 14.5 | 0.00 | 0.13 | 0.00 | 70 | 1007.0 |
| 20260509063856 | 8 | 229 | 3.2 | 9.7 | 0.00 | 0.13 | 0.00 | 70 | 1007.0 |
| 20260509063656 | 8 | 235 | 3.2 | 6.4 | 0.00 | 0.13 | 0.00 | 70 | 1007.1 |
| 20260509063456 | 8 | 233 | 1.6 | 4.8 | 0.00 | 0.13 | 0.00 | 70 | 1007.1 |
| 20260509063255 | 8 | 234 | 1.6 | 9.7 | 0.00 | 0.13 | 0.00 | 69 | 1007.1 |
| 20260509063055 | 8 | 234 | 0.0 | 11.3 | 0.00 | 0.13 | 0.00 | 69 | 1007.1 |
| 20260509062855 | 8 | 234 | 0.0 | 11.3 | 0.00 | 0.13 | 0.00 | 69 | 1007.1 |
| 20260509062654 | 8 | 231 | 3.2 | 11.3 | 0.00 | 0.13 | 0.00 | 68 | 1007.2 |
| 20260509062454 | 8 | 225 | 3.2 | 11.3 | 0.00 | 0.13 | 0.00 | 68 | 1007.1 |
| 20260509062254 | 8 | 223 | 1.6 | 11.3 | 0.00 | 0.13 | 0.00 | 68 | 1007.2 |
| 20260509062054 | 8 | 215 | 0.0 | 4.8 | 0.00 | 0.13 | 0.00 | 68 | 1007.2 |
| 20260509061853 | 8 | 215 | 0.0 | 4.8 | 0.00 | 0.13 | 0.00 | 68 | 1007.2 |
| 20260509061653 | 8 | 215 | 0.0 | 6.4 | 0.00 | 0.13 | 0.00 | 68 | 1007.3 |
| 20260509061453 | 8 | 217 | 1.6 | 8.0 | 0.00 | 0.13 | 0.00 | 68 | 1007.3 |